Location: B�hagnies
(50.1418°N, 2.8340°E)
Time: 00:36:19
(UTC+00:00)

Daily predictions for brighter satellites

Satellite Brightness Start Highest point End
(mag) Time Altitude Azimuth Time Altitude Azimuth Time Altitude Azimuth
CENTAUR R/B 4.5 00:02:05 10° NW 00:08:14 30° N 00:15:14 10° ENE
ATLAS 3B R/B 4.3 01:22:13 25° NNW 01:23:05 26° N 01:28:48 10° NE
CZ-2D R/B 4.4 01:24:00 10° NNE 01:25:31 20° NNE 01:25:31 20° NNE
SL-16 R/B 4.5 01:47:17 20° NNW 01:47:17 20° NNW 01:49:01 10° NNW
Resurs 1-4 Rocket 4.1 01:55:31 10° N 01:57:29 23° N 01:57:29 23° N
CENTAUR R/B 4.0 01:53:37 10° NW 02:00:55 45° NNE 02:09:08 10° E
Cosmos 2360 Rocket 4.0 02:09:33 10° NNW 02:22:23 - SE 02:12:08 25° N
ADEOS II 3.7 02:14:51 10° NNE 02:17:29 31° NNE 02:17:29 31° NNE
IDEFIX/ARIANE 42P 4.1 02:16:26 10° NNE 02:19:41 33° NE 02:19:41 33° NE
USA 229 DEB 4.4 02:22:53 46° N 02:22:53 46° N 02:28:45 10° NE
USA 229 4.3 02:22:58 46° N 02:22:58 46° N 02:28:51 10° NE
USA 234 4.2 02:20:26 10° ESE 02:24:09 38° ESE 02:24:09 38° ESE
ADEOS Rocket 4.1 02:30:07 33° N 02:30:07 33° N 02:33:05 10° N
Lacrosse 5 3.9 02:40:09 22° ESE 02:40:09 22° ESE 02:41:54 10° ESE
Cosmos 1833 Rocket 4.3 02:39:48 25° NNW 02:39:48 25° NNW 02:43:00 10° NNE
NOSS 3-1 (A) 4.3 02:39:30 42° NNW 02:39:30 42° NNW 02:45:17 10° NE
Cosmos 2082 Rocket 3.5 02:42:36 34° N 02:42:36 34° N 02:46:15 10° NNE
Cosmos 2333 Rocket 3.7 02:38:11 10° NNW 02:43:28 35° NE 02:48:44 10° ESE
MSX 4.4 02:38:46 10° NNE 02:44:10 52° E 02:44:10 52° E
Cosmos 2221 4.3 02:53:27 31° NE 02:53:27 31° NE 02:56:15 10° NNE
Cosmos 2219 Rocket 3.5 02:53:14 10° NNW 02:58:30 37° NE 03:03:45 10° ESE
CZ-2C R/B 4.0 02:56:50 10° NE 03:00:55 28° E 03:02:02 25° ESE
CZ-2D R/B 4.0 03:04:51 10° N 03:06:51 18° NNW 03:06:51 18° NNW
USA 238 DEB 3.8 03:05:25 10° NW 03:12:38 82° NE 03:20:12 10° SE
USA 238 3.8 03:05:32 10° NW 03:12:45 81° NE 03:20:19 10° SE
GEOS 3 Rocket 3.8 03:08:47 10° NE 03:13:38 63° N 03:13:38 63° N
COSMOS 2428 3.9 03:09:29 10° NNW 03:14:54 42° NE 03:20:19 10° ESE
ATLAS 3B R/B 4.2 03:09:42 10° NW 03:15:49 33° NNE 03:22:10 10° E
CZ-4B R/B 4.0 03:12:40 10° N 03:16:35 50° N 03:16:35 50° N
ATLAS 5 CENTAUR R/B 4.2 03:20:07 10° ESE 03:21:04 11° ESE 03:22:05 10° E
S3M 4.0 03:21:13 50° SSE 03:22:53 77° E 03:29:06 10° NNE
ARIANE 5 R/B 2.7 03:19:01 10° NNE 03:23:22 64° NNW 03:23:22 64° NNW
Cosmos 1745 Rocket 3.9 03:18:15 10° N 03:24:36 84° W 03:26:32 48° S
SeaSat 1 4.5 03:20:39 10° E 03:24:43 26° NE 03:28:49 10° NNW
USA 267 3.2 03:27:47 10° ENE 03:34:20 82° NNW 03:35:57 55° WSW
Cosmos 2322 3.8 03:30:00 10° NNW 03:35:43 76° ENE 03:41:23 10° SE
Cosmos 1709 Rocket 4.2 03:29:57 10° N 03:36:21 74° ENE 03:42:43 10° SSE
Resurs 1-4 Rocket 4.2 03:37:03 10° NNW 03:38:34 13° NW 03:38:34 13° NW
Meteor 1-4 Rocket 4.0 03:42:49 31° N 03:42:49 31° N 03:44:48 10° N
NOSS 3-2 (A) 3.9 03:33:56 10° NW 03:41:19 68° SW 03:49:42 10° SSE
H-2A R/B 3.6 03:39:15 10° SE 03:43:03 34° ENE 03:46:49 10° N
NOSS 2-2 (C) 4.5 03:44:33 33° N 03:44:33 33° N 03:47:33 10° NE
Spot 4 Rocket 3.9 03:40:39 10° NNE 03:45:49 77° WNW 03:46:28 66° SW
Cosmos 1842 Rocket 4.1 03:48:19 47° NNW 03:48:19 47° NNW 03:51:38 10° N
Iridium 4 Rocket 4.4 03:49:26 28° NNW 03:49:26 28° NNW 03:51:42 10° N
COSMOS 2487 3.3 03:50:12 48° E 03:50:12 48° E 03:53:13 10° NNE
Cosmos 2344 3.5 03:46:42 38° SSW 03:49:58 82° SE 03:58:06 10° NE
Cosmos 1833 4.2 03:48:29 47° SSW 03:50:12 82° ESE 03:55:53 10° NNE
CENTAUR R/B 3.1 03:44:22 10° NW 03:52:24 79° SW 04:01:16 10° SSE
Cosmos 2251 Rocket 3.7 03:53:53 33° S 03:56:19 72° ESE 04:01:42 10° NNE
Cosmos 2360 Rocket 4.4 03:53:41 10° NW 04:04:23 - S 03:53:49 11° NW
ADEOS II 3.8 03:55:39 10° NNW 03:58:26 18° NW 03:58:26 18° NW
ISS -3.0 04:00:41 48° ESE 04:00:41 48° ESE 04:03:13 10° ESE
IDEFIX/ARIANE 42P 3.5 03:56:19 10° N 04:00:30 31° NW 04:00:30 31° NW
Meteor 2-17 Rocket 4.3 03:55:41 10° N 04:01:46 87° W 04:07:49 10° S
ALOS 2.9 03:57:43 10° NNE 04:02:19 54° E 04:06:54 10° S
PAYLOAD A 4.0 03:57:14 10° NNE 04:02:34 80° WNW 04:05:04 33° SSW
CZ-2C R/B 2.9 04:00:50 10° N 04:04:14 57° NW 04:04:14 57° NW
Cosmos 2237 Rocket 3.5 04:00:56 10° NNW 04:06:17 40° NE 04:11:37 10° ESE
Cosmos 2333 4.2 04:01:02 10° NW 04:06:46 61° WSW 04:12:26 10° SSE
USA 234 3.7 04:04:31 10° SSE 04:10:27 36° SW 04:11:34 34° WSW
CZ-4C R/B 3.0 04:10:13 17° S 04:13:48 45° ESE 04:19:24 10° NE
PSLV R/B 3.5 04:10:37 10° NNE 04:15:01 86° WNW 04:17:21 28° SSW
Cosmos 883 Rocket 4.3 04:11:11 19° SSW 04:15:40 71° WNW 04:21:49 10° N
USA 276 2.7 04:16:02 48° SSE 04:16:02 48° SSE 04:19:07 10° E
GENESIS II 4.1 04:17:05 56° WSW 04:17:49 78° NW 04:21:49 10° NE
Lacrosse 5 2.3 04:19:24 38° SW 04:19:40 38° SW 04:24:19 10° SSE
NOSS 3-4 (A) 4.2 04:16:30 11° SSW 04:21:49 48° ESE 04:27:50 10° NE
NOSS 3-4 (C) 4.2 04:16:34 11° SSW 04:21:56 48° ESE 04:27:56 10° NE
Cosmos 192 4.3 04:17:39 10° NNW 04:22:39 87° WSW 04:27:37 10° SSE
NOSS 3-2 (C) 4.0 04:15:58 10° NW 04:23:20 61° SW 04:31:40 10° SSE
Cosmos 2082 Rocket 4.2 04:24:26 12° NW 04:26:30 14° NNW 04:29:26 10° N
SL-27 R/B 4.4 04:27:25 17° NW 04:27:25 17° NW 04:29:12 10° N
Cosmos 2333 Rocket 2.3 04:22:24 10° NW 04:27:59 52° WSW 04:33:34 10° S
SL-16 R/B 4.2 04:24:12 10° NNW 04:29:02 27° NE 04:33:50 10° E
Cosmos 2221 3.7 04:30:18 25° WNW 04:30:18 25° WNW 04:33:33 10° NNW
Cosmos 1484 Rocket 2.6 04:28:15 10° NNE 04:32:00 84° ESE 04:35:26 12° SSW
Cosmos 1805 Rocket 3.8 04:28:19 10° NNW 04:32:35 44° W 04:36:49 10° SSW
Cosmos 1437 Rocket 3.8 04:30:58 10° S 04:34:53 49° E 04:38:47 10° NNE
SJ-6F 4.4 04:31:19 10° NNE 04:35:31 89° WNW 04:39:42 10° SSW
ATLAS 2AS CENTAUR R/B 3.9 04:29:38 10° SSW 04:37:09 49° ESE 04:44:34 10° NE
Landsat 5 3.6 04:33:41 10° S 04:37:20 42° W 04:41:07 10° NNW
CZ-2C R/B 2.7 04:34:50 10° N 04:39:18 41° WNW 04:41:25 26° WSW
Cosmos 2315 Rocket 4.0 04:35:02 10° SSW 04:41:07 57° WNW 04:47:15 10° N
CZ-4B R/B 2.4 04:38:32 10° SE 04:41:29 44° ENE 04:44:25 10° N
COSMO-SKYMED 1 2.9 04:38:11 10° SSE 04:42:29 67° ENE 04:46:49 10° N
Cosmos 2219 Rocket 2.4 04:37:11 10° NW 04:42:36 47° WSW 04:47:59 10° S
Cosmos 2297 Rocket 4.1 04:37:56 10° SSE 04:42:45 30° ESE 04:47:35 10° NE
Cosmos 1782 3.4 04:40:58 10° S 04:44:50 59° E 04:48:46 10° NNE
CBERS 1 LM4 rocket 4.2 04:42:15 10° NNE 04:47:05 81° WNW 04:51:48 10° SSW
Cosmos 1606 3.5 04:47:57 27° W 04:48:55 31° WNW 04:52:25 10° N
Sich 1 3.5 04:45:05 10° NNW 04:49:12 39° W 04:53:17 10° SSW
Cosmos 1140 Rocket 3.8 04:45:11 10° SSW 04:50:21 69° ESE 04:55:31 10° NNE
Cosmos 1980 3.8 04:45:42 10° NNW 04:51:24 80° ENE 04:57:05 10° SSE
Cosmos 1500 4.0 04:47:50 10° N 04:51:34 53° ENE 04:55:18 10° SSE
METEOR-M 4.1 04:47:42 10° NNE 04:53:04 76° WNW 04:58:23 10° SSW
Meteor 1-26 Rocket 4.4 04:47:53 10° S 04:53:38 81° E 04:59:36 10° NNE
ERS-2 4.1 04:52:42 10° SE 04:55:58 32° ENE 04:59:14 10° N
Cosmos 1666 Rocket 3.6 04:52:09 10° NNW 04:56:25 52° W 05:00:41 10° S
Cosmos 2074 Rocket 3.9 04:51:00 10° NNW 04:57:12 75° W 05:03:22 10° S
COSMOS 2428 3.1 04:53:53 10° NW 04:59:13 42° WSW 05:04:32 10° S
BREEZE M DEB (TANK) 2.5 04:59:34 23° W 05:01:11 59° SSW 05:07:50 10° ESE
MOS 1 Rocket 3.1 04:57:12 10° S 05:01:38 76° WSW 05:06:21 10° NNW
SeaSat 1 2.4 04:56:58 10° SSE 05:01:53 69° WSW 05:06:50 10° NW
Cosmos 1023 Rocket 4.5 04:56:52 10° SSW 05:02:04 87° ESE 05:07:15 10° NNE
ARIANE 5 R/B 4.2 04:59:43 10° NNW 05:02:24 15° NW 05:03:42 13° WNW
BREEZE-M DEB (TANK) 2.4 05:00:37 18° W 05:03:44 84° S 05:06:07 10° E
ATLAS 5 CENTAUR R/B 1.5 05:00:50 11° SW 05:04:39 82° SE 05:09:15 10° NE
Cosmos 2154 Rocket 4.1 04:58:24 10° N 05:04:41 86° E 05:10:58 10° S
CZ-4C R/B 4.2 05:04:28 20° W 05:04:42 20° W 05:07:22 10° NW
SKYMED 3 4.5 05:02:12 10° S 05:06:32 73° WSW 05:10:54 10° NNW
ATLAS 3B R/B 2.9 05:00:32 10° NW 05:07:30 80° NE 05:14:46 10° SE
CZ-4B R/B 3.5 05:04:06 10° NNE 05:07:49 78° WNW 05:11:27 10° SSW
ADEOS 3.5 05:03:06 10° NNE 05:08:22 82° WNW 05:13:36 10° SSW
Cosmos 1602 4.0 05:06:22 10° NNW 05:10:10 46° W 05:13:54 10° SSW
FENGYUN 3A 4.1 05:09:01 10° N 05:14:06 41° WNW 05:19:09 10° SW
USA 267 3.8 05:10:46 10° ENE 05:17:03 51° N 05:23:18 10° W
H-2A R/B 2.8 05:15:28 10° SSW 05:19:04 27° W 05:22:40 10° NW
Cosmos 1151 Rocket 3.2 05:16:26 10° SSW 05:20:37 50° WNW 05:24:49 10° N
Cosmos 909 Rocket 4.2 05:15:40 10° SW 05:22:04 61° NW 05:28:22 10° NE
Cosmos 2219 4.0 05:16:59 10° S 05:22:29 55° ESE 05:27:58 10° NE
NOSS 0 Rocket 4.2 05:17:14 10° NW 05:23:08 48° WSW 05:29:02 10° S
Cosmos 1763 Rocket 4.0 05:18:40 10° NNW 05:23:55 66° ENE 05:29:02 10° SE
Cosmos 2184 Rocket 4.2 05:17:58 10° NNW 05:24:03 51° W 05:30:10 10° SSW
Meteor 2-12 Rocket 4.4 05:18:17 10° NNW 05:24:27 79° W 05:30:36 10° S
COSMOS 2487 4.2 05:23:34 12° W 05:25:05 16° NW 05:27:14 10° NNW
Cosmos 1633 Rocket 3.8 05:23:30 10° NNW 05:27:24 31° W 05:31:16 10° SSW
SKYMED 2 3.9 05:26:30 10° S 05:30:37 42° W 05:34:46 10° NNW
Geosat 4.4 05:27:01 10° NNE 05:31:47 44° NW 05:36:31 10° WSW
H-2A R/B 2.8 05:29:01 10° NNE 05:32:57 88° WNW 05:36:50 10° SSW
Cosmos 1242 Rocket 2.5 05:32:14 10° S 05:35:41 84° E 05:39:13 10° NNE
ISS -2.3 05:33:39 10° W 05:36:19 22° SW 05:39:01 10° SSE
Cosmos 468 Rocket 4.1 05:31:05 10° NNW 05:36:20 85° ENE 05:41:30 10° SSE
ALOS 3.5 05:35:46 10° N 05:39:25 23° WNW 05:43:04 10° WSW
Cosmos 1812 2.6 05:37:04 10° SSW 05:40:54 77° W 05:44:46 10° N
CENTAUR R/B 4.1 05:36:01 10° WNW 05:42:23 25° WSW 05:49:05 10° SSW
CZ-2C R/B 3.1 05:37:06 10° SSE 05:42:42 73° ENE 05:48:18 10° N
Meteor 1-11 Rocket 4.0 05:37:52 10° N 05:43:25 75° ENE 05:49:00 10° SSE
Meteor 1-31 Rocket 3.5 05:40:57 10° N 05:44:26 32° WNW 05:47:52 10° SW
